Miscellaneous Local Product
Issued by NWS Hastings, NE

Home | Current Version | Previous Version | Graphics & Text | Print | Product List | Glossary On
Versions: 1 2 3 4 5 6 7 8 9 10 11 12 13 14 15 16 17 18 19 20 21 22 23 24 25 26 27 28 29 30 31 32 33 34 35 36 37 38 39 40 41 42 43 44 45 46 47 48 49 50
000
AXUS43 KGID 272202
MISGRI

GID CWA HOURLY WEATHER ROUNDUP
NATIONAL WEATHER SERVICE HASTINGS NE
400 PM CST SAT DEC 27 2014

NOTE: "FAIR" INDICATES FEW OR NO CLOUDS BELOW 12,000 FEET WITH NO
SIGNIFICANT WEATHER AND/OR OBSTRUCTIONS TO VISIBILITY.

...SOUTH CENTRAL NEBRASKA...

CITY           SKY/WX    TMP DP  RH WIND       PRES   REMARKS
GRAND ISLAND   CLEAR     25  15  66 SW6       30.22R WCI  18
HASTINGS       SUNNY     24  15  68 W6        30.20S WCI  17
KEARNEY        SUNNY     25  16  68 W8        30.20S WCI  16
ORD            CLEAR     24  15  68 W8        30.17R WCI  15
YORK           CLEAR     25  18  74 W8        30.22S WCI  16
AURORA         CLEAR     26  16  65 W7        30.21S WCI  19
LEXINGTON      SUNNY     27  19  71 SW5       30.19R WCI  21
HOLDREGE       SUNNY     26  17  68 W6        30.20S WCI  19
HEBRON         SUNNY     28  17  61 W7        30.25F WCI  21

...NEBRASKA PANHANDLE...

CITY           SKY/WX    TMP DP  RH WIND       PRES   REMARKS
CHADRON        SUNNY     24  12  60 W8        30.06F WCI  15
ALLIANCE       SUNNY     20  10  65 W14       30.05F WCI   7
SCOTTSBLUFF    SUNNY     21  10  62 CALM      30.08S
SIDNEY         SUNNY     16   8  71 SW10      30.09F WCI   4

...WESTERN AND NORTH CENTRAL NEBRASKA...

CITY           SKY/WX    TMP DP  RH WIND       PRES   REMARKS
VALENTINE      CLEAR     23  14  68 SW7       30.09F WCI  15
AINSWORTH      CLEAR     22  14  71 SW6       30.10S WCI  14
ONEILL         CLEAR     22  17  83 W6        30.15R WCI  14
BROKEN BOW     SUNNY     24  16  71 W5        30.14F WCI  18
IMPERIAL       SUNNY     27  13  55 W7        30.16S WCI  19
NORTH PLATTE   SUNNY     23  14  68 W10       30.16R WCI  12
MCCOOK         SUNNY     26  15  63 W7        30.20S WCI  18

...EASTERN NEBRASKA...

CITY           SKY/WX    TMP DP  RH WIND       PRES   REMARKS
NORFOLK        CLEAR     21  14  74 SW5       30.18S WCI  15
SO SIOUX CITY  CLEAR     21  12  68 W7        30.22R WCI  12
TEKAMAH        CLEAR     24  14  65 W7        30.24R WCI  16
COLUMBUS       CLEAR     25  12  58 SW7       30.23S WCI  17
ALBION         CLEAR     27  15  61 W5        30.18S WCI  21
OMAHA EPPLEY   PTCLDY    26  17  68 W9        30.25R WCI  17
OFFUTT AFB     CLEAR     27  17  65 W6        30.24R WCI  20
MILLARD        CLEAR     26  16  63 NW5       30.24S WCI  21
LINCOLN        CLEAR     27  16  63 W8        30.26R WCI  19
NEBRASKA CITY  CLEAR     28  18  64 NW10      30.24R WCI  19
BEATRICE       CLEAR     28  19  67 NW12      30.25R WCI  18
FALLS CITY     MOCLDY    30  19  63 W10       30.25R WCI  21

...NORTHERN KANSAS...

CITY           SKY/WX    TMP DP  RH WIND       PRES   REMARKS
GOODLAND       SUNNY     28  16  60 W6        30.17R WCI  22
HILL CITY      SUNNY     28  17  63 W9        30.25R WCI  19
NORTON         CLEAR     28  16  59 W9        30.21S WCI  20
PHILLIPSBURG   SUNNY     30  19  64 W9        30.25S WCI  22
BELOIT         SUNNY     30  18  59 NW8       30.27S WCI  23
HAYS           SUNNY     30  12  47 W12       30.25S WCI  21
RUSSELL        SUNNY     30  18  60 NW8       30.25S WCI  22
CONCORDIA      SUNNY     30  16  56 NW9       30.26R WCI  22
SALINA         MOSUNNY   32  16  51 NW12      30.29R WCI  23
TOPEKA         CLEAR     35  18  49 NW8       30.27R WCI  29



USA.gov is the U.S. government's official web portal to all federal, state and local government web resources and services.